contact:dominique.lefevre@mio.osupytheas.fr, maurice.libes@osupytheas.fr, didier.mallarino@osupytheas.fr
Project:EMSO http://www.emso-fr.org/EMSO-France
Depth: 2436.0 m
Title:EMSO Ligure Ouest : Data MII capteur MICROCAT
DateTime_Computer,Latitude,Longitude,Temperature,Conductivity,Pressure,DateTime_Instrument
DateTime_Computer,Latitude,Longitude,degC,S m-1,dbar,DateTime_Instrument
2021-01-12T00:00:11Z,42.805,6.029,13.2980,4.59986,2470.133,2021-1-12T02:01:12Z
2021-01-12T00:03:14Z,42.805,6.029,13.2982,4.59985,2470.11,2021-1-12T02:04:15Z
2021-01-12T00:06:17Z,42.805,6.029,13.2983,4.59983,2470.133,2021-1-12T02:07:18Z
2021-01-12T00:09:20Z,42.805,6.029,13.2977,4.59983,2470.133,2021-1-12T02:10:21Z
2021-01-12T00:12:23Z,42.805,6.029,13.2983,4.59983,2470.11,2021-1-12T02:13:25Z
2021-01-12T00:15:27Z,42.805,6.029,13.2982,4.59983,2470.133,2021-1-12T02:16:28Z
2021-01-12T00:18:30Z,42.805,6.029,13.2979,4.59983,2470.147,2021-1-12T02:19:31Z
2021-01-12T00:21:33Z,42.805,6.029,13.2982,4.59984,2470.194,2021-1-12T02:22:34Z
2021-01-12T00:24:36Z,42.805,6.029,13.2980,4.59982,2470.1,2021-1-12T02:25:37Z
2021-01-12T00:27:39Z,42.805,6.029,13.2976,4.59983,2470.11,2021-1-12T02:28:40Z
2021-01-12T00:30:42Z,42.805,6.029,13.2978,4.59985,2470.11,2021-1-12T02:31:43Z
2021-01-12T00:33:45Z,42.805,6.029,13.2979,4.59982,2470.147,2021-1-12T02:34:46Z
2021-01-12T00:36:48Z,42.805,6.029,13.2983,4.59982,2470.147,2021-1-12T02:37:50Z
2021-01-12T00:39:52Z,42.805,6.029,13.2978,4.59981,2470.11,2021-1-12T02:40:53Z
2021-01-12T00:42:55Z,42.805,6.029,13.2980,4.59986,2470.1,2021-1-12T02:43:56Z
2021-01-12T00:45:58Z,42.805,6.029,13.2977,4.59983,2470.147,2021-1-12T02:46:59Z
2021-01-12T00:49:01Z,42.805,6.029,13.2980,4.59982,2470.133,2021-1-12T02:50:02Z
2021-01-12T00:52:04Z,42.805,6.029,13.2978,4.59986,2470.171,2021-1-12T02:53:05Z
2021-01-12T00:55:07Z,42.805,6.029,13.2978,4.59981,2470.11,2021-1-12T02:56:08Z
2021-01-12T00:58:10Z,42.805,6.029,13.2979,4.59982,2470.147,2021-1-12T02:59:11Z
2021-01-12T01:01:13Z,42.805,6.029,13.2981,4.59982,2470.133,2021-1-12T03:02:15Z
2021-01-12T01:04:17Z,42.805,6.029,13.2982,4.59983,2470.133,2021-1-12T03:05:18Z
2021-01-12T01:07:20Z,42.805,6.029,13.2982,4.59985,2470.147,2021-1-12T03:08:21Z
2021-01-12T01:10:23Z,42.805,6.029,13.2981,4.59982,2470.147,2021-1-12T03:11:24Z
2021-01-12T01:13:26Z,42.805,6.029,13.2979,4.59982,2470.119,2021-1-12T03:14:27Z
2021-01-12T01:16:29Z,42.805,6.029,13.2979,4.59981,2470.11,2021-1-12T03:17:30Z
2021-01-12T01:19:32Z,42.805,6.029,13.2980,4.59982,2470.171,2021-1-12T03:20:33Z
2021-01-12T01:22:35Z,42.805,6.029,13.2982,4.59982,2470.171,2021-1-12T03:23:36Z
2021-01-12T01:25:38Z,42.805,6.029,13.2979,4.59983,2470.119,2021-1-12T03:26:40Z
2021-01-12T01:28:42Z,42.805,6.029,13.2979,4.59985,2470.156,2021-1-12T03:29:43Z
2021-01-12T01:31:45Z,42.805,6.029,13.2981,4.59984,2470.124,2021-1-12T03:32:46Z
2021-01-12T01:34:48Z,42.805,6.029,13.2979,4.59985,2470.133,2021-1-12T03:35:49Z
2021-01-12T01:37:51Z,42.805,6.029,13.2981,4.59982,2470.133,2021-1-12T03:38:52Z
2021-01-12T01:40:54Z,42.805,6.029,13.2983,4.59984,2470.156,2021-1-12T03:41:55Z
2021-01-12T01:43:57Z,42.805,6.029,13.2979,4.59982,2470.156,2021-1-12T03:44:58Z
2021-01-12T01:47:00Z,42.805,6.029,13.2979,4.59983,2470.18,2021-1-12T03:48:01Z
2021-01-12T01:50:03Z,42.805,6.029,13.2979,4.59982,2470.156,2021-1-12T03:51:04Z
2021-01-12T01:53:06Z,42.805,6.029,13.2981,4.59984,2470.133,2021-1-12T03:54:08Z
2021-01-12T01:56:10Z,42.805,6.029,13.2981,4.59982,2470.156,2021-1-12T03:57:11Z
2021-01-12T01:59:13Z,42.805,6.029,13.2981,4.59983,2470.18,2021-1-12T04:00:14Z
2021-01-12T02:02:16Z,42.805,6.029,13.2979,4.59982,2470.11,2021-1-12T04:03:17Z
2021-01-12T02:05:19Z,42.805,6.029,13.2981,4.59983,2470.171,2021-1-12T04:06:20Z
2021-01-12T02:08:22Z,42.805,6.029,13.2978,4.59986,2470.156,2021-1-12T04:09:23Z
2021-01-12T02:11:25Z,42.805,6.029,13.2981,4.59983,2470.133,2021-1-12T04:12:26Z
2021-01-12T02:14:28Z,42.805,6.029,13.2978,4.59986,2470.171,2021-1-12T04:15:29Z
2021-01-12T02:17:31Z,42.805,6.029,13.2983,4.59984,2470.156,2021-1-12T04:18:33Z
2021-01-12T02:20:35Z,42.805,6.029,13.2981,4.59983,2470.156,2021-1-12T04:21:36Z
2021-01-12T02:23:38Z,42.805,6.029,13.2981,4.59986,2470.156,2021-1-12T04:24:39Z
2021-01-12T02:26:41Z,42.805,6.029,13.2982,4.59983,2470.18,2021-1-12T04:27:42Z
2021-01-12T02:29:44Z,42.805,6.029,13.2980,4.59984,2470.18,2021-1-12T04:30:45Z
2021-01-12T02:32:47Z,42.805,6.029,13.2979,4.59983,2470.171,2021-1-12T04:33:48Z
2021-01-12T02:35:50Z,42.805,6.029,13.2977,4.59984,2470.217,2021-1-12T04:36:51Z
2021-01-12T02:38:53Z,42.805,6.029,13.2982,4.59983,2470.156,2021-1-12T04:39:54Z
2021-01-12T02:41:56Z,42.805,6.029,13.2978,4.59983,2470.203,2021-1-12T04:42:58Z
2021-01-12T02:45:00Z,42.805,6.029,13.2984,4.59983,2470.18,2021-1-12T04:46:01Z
2021-01-12T02:48:03Z,42.805,6.029,13.2982,4.59983,2470.194,2021-1-12T04:49:04Z
2021-01-12T02:51:06Z,42.805,6.029,13.2980,4.59983,2470.217,2021-1-12T04:52:07Z
2021-01-12T02:54:09Z,42.805,6.029,13.2983,4.59984,2470.194,2021-1-12T04:55:10Z
2021-01-12T02:57:12Z,42.805,6.029,13.2979,4.59984,2470.217,2021-1-12T04:58:13Z
2021-01-12T03:00:15Z,42.805,6.029,13.2980,4.59985,2470.203,2021-1-12T05:01:16Z
2021-01-12T03:03:18Z,42.805,6.029,13.2983,4.59984,2470.194,2021-1-12T05:04:19Z
2021-01-12T03:06:21Z,42.805,6.029,13.2984,4.59983,2470.18,2021-1-12T05:07:23Z
2021-01-12T03:09:25Z,42.805,6.029,13.2979,4.59984,2470.24,2021-1-12T05:10:26Z
2021-01-12T03:12:28Z,42.805,6.029,13.2975,4.59987,2470.25,2021-1-12T05:13:29Z
2021-01-12T03:15:31Z,42.805,6.029,13.2979,4.59983,2470.217,2021-1-12T05:16:32Z
2021-01-12T03:18:34Z,42.805,6.029,13.2982,4.59984,2470.227,2021-1-12T05:19:35Z
2021-01-12T03:21:37Z,42.805,6.029,13.2978,4.59984,2470.203,2021-1-12T05:22:38Z
2021-01-12T03:24:40Z,42.805,6.029,13.2983,4.59983,2470.227,2021-1-12T05:25:41Z
2021-01-12T03:27:43Z,42.805,6.029,13.2981,4.59983,2470.25,2021-1-12T05:28:44Z
2021-01-12T03:30:46Z,42.805,6.029,13.2981,4.59985,2470.227,2021-1-12T05:31:48Z
2021-01-12T03:33:50Z,42.805,6.029,13.2980,4.59984,2470.24,2021-1-12T05:34:51Z
2021-01-12T03:36:53Z,42.805,6.029,13.2982,4.59986,2470.227,2021-1-12T05:37:54Z
2021-01-12T03:39:56Z,42.805,6.029,13.2979,4.59985,2470.227,2021-1-12T05:40:57Z
2021-01-12T03:42:59Z,42.805,6.029,13.2984,4.59986,2470.236,2021-1-12T05:44:00Z
2021-01-12T03:46:02Z,42.805,6.029,13.2980,4.59984,2470.25,2021-1-12T05:47:03Z
2021-01-12T03:49:05Z,42.805,6.029,13.2978,4.59984,2470.25,2021-1-12T05:50:06Z
2021-01-12T03:52:08Z,42.805,6.029,13.2980,4.59983,2470.273,2021-1-12T05:53:09Z
2021-01-12T03:55:11Z,42.805,6.029,13.2978,4.59986,2470.273,2021-1-12T05:56:12Z
2021-01-12T03:58:14Z,42.805,6.029,13.2982,4.59985,2470.287,2021-1-12T05:59:16Z
2021-01-12T04:01:18Z,42.805,6.029,13.2982,4.59984,2470.264,2021-1-12T06:02:19Z
2021-01-12T04:04:21Z,42.805,6.029,13.2981,4.59985,2470.31,2021-1-12T06:05:22Z
2021-01-12T04:07:24Z,42.805,6.029,13.2982,4.59983,2470.297,2021-1-12T06:08:25Z
2021-01-12T04:10:27Z,42.805,6.029,13.2981,4.59984,2470.334,2021-1-12T06:11:28Z
2021-01-12T04:13:30Z,42.805,6.029,13.2982,4.59986,2470.273,2021-1-12T06:14:31Z
2021-01-12T04:16:33Z,42.805,6.029,13.2978,4.59985,2470.32,2021-1-12T06:17:34Z
2021-01-12T04:19:36Z,42.805,6.029,13.2982,4.59987,2470.334,2021-1-12T06:20:37Z
2021-01-12T04:22:39Z,42.805,6.029,13.2980,4.59985,2470.31,2021-1-12T06:23:41Z
2021-01-12T04:25:43Z,42.805,6.029,13.2982,4.59985,2470.32,2021-1-12T06:26:44Z
2021-01-12T04:28:46Z,42.805,6.029,13.2982,4.59985,2470.32,2021-1-12T06:29:47Z
2021-01-12T04:31:49Z,42.805,6.029,13.2981,4.59986,2470.31,2021-1-12T06:32:50Z
2021-01-12T04:34:52Z,42.805,6.029,13.2982,4.59986,2470.32,2021-1-12T06:35:53Z
2021-01-12T04:37:55Z,42.805,6.029,13.2983,4.59985,2470.32,2021-1-12T06:38:56Z
2021-01-12T04:40:58Z,42.805,6.029,13.2985,4.59985,2470.334,2021-1-12T06:41:59Z
2021-01-12T04:44:01Z,42.805,6.029,13.2984,4.59985,2470.297,2021-1-12T06:45:02Z
2021-01-12T04:47:04Z,42.805,6.029,13.2982,4.59984,2470.32,2021-1-12T06:48:06Z
2021-01-12T04:50:08Z,42.805,6.029,13.2982,4.59986,2470.32,2021-1-12T06:51:09Z
2021-01-12T04:53:11Z,42.805,6.029,13.2985,4.59984,2470.297,2021-1-12T06:54:12Z
2021-01-12T04:56:14Z,42.805,6.029,13.2980,4.59986,2470.343,2021-1-12T06:57:15Z
2021-01-12T04:59:17Z,42.805,6.029,13.2983,4.59984,2470.32,2021-1-12T07:00:18Z
2021-01-12T05:02:20Z,42.805,6.029,13.2986,4.59986,2470.366,2021-1-12T07:03:21Z
2021-01-12T05:05:23Z,42.805,6.029,13.2983,4.59988,2470.343,2021-1-12T07:06:24Z
2021-01-12T05:08:26Z,42.805,6.029,13.2982,4.59986,2470.334,2021-1-12T07:09:27Z
2021-01-12T05:11:29Z,42.805,6.029,13.2983,4.59986,2470.357,2021-1-12T07:12:31Z
2021-01-12T05:14:32Z,42.805,6.029,13.2982,4.59985,2470.32,2021-1-12T07:15:34Z
2021-01-12T05:17:36Z,42.805,6.029,13.2979,4.59986,2470.334,2021-1-12T07:18:37Z
2021-01-12T05:20:39Z,42.805,6.029,13.2983,4.59985,2470.357,2021-1-12T07:21:40Z
2021-01-12T05:23:42Z,42.805,6.029,13.2983,4.59985,2470.357,2021-1-12T07:24:43Z
2021-01-12T05:26:45Z,42.805,6.029,13.2980,4.59985,2470.38,2021-1-12T07:27:46Z
2021-01-12T05:29:48Z,42.805,6.029,13.2982,4.59985,2470.357,2021-1-12T07:30:49Z
2021-01-12T05:32:51Z,42.805,6.029,13.2985,4.59986,2470.32,2021-1-12T07:33:52Z
2021-01-12T05:35:54Z,42.805,6.029,13.2983,4.59985,2470.366,2021-1-12T07:36:56Z
2021-01-12T05:38:57Z,42.805,6.029,13.2981,4.59986,2470.357,2021-1-12T07:39:59Z
2021-01-12T05:42:01Z,42.805,6.029,13.2979,4.59985,2470.366,2021-1-12T07:43:02Z
2021-01-12T05:45:04Z,42.805,6.029,13.2981,4.59985,2470.357,2021-1-12T07:46:05Z
2021-01-12T05:48:07Z,42.805,6.029,13.2985,4.59986,2470.343,2021-1-12T07:49:08Z
2021-01-12T05:51:10Z,42.805,6.029,13.2980,4.59986,2470.39,2021-1-12T07:52:11Z
2021-01-12T05:54:13Z,42.805,6.029,13.2979,4.59986,2470.366,2021-1-12T07:55:14Z
2021-01-12T05:57:16Z,42.805,6.029,13.2984,4.59986,2470.366,2021-1-12T07:58:17Z
2021-01-12T06:00:19Z,42.805,6.029,13.2981,4.59985,2470.38,2021-1-12T08:01:20Z
2021-01-12T06:03:22Z,42.805,6.029,13.2983,4.59985,2470.38,2021-1-12T08:04:24Z
2021-01-12T06:06:26Z,42.805,6.029,13.2983,4.59985,2470.343,2021-1-12T08:07:27Z
2021-01-12T06:09:29Z,42.805,6.029,13.2981,4.59986,2470.366,2021-1-12T08:10:30Z
2021-01-12T06:12:32Z,42.805,6.029,13.2984,4.59986,2470.366,2021-1-12T08:13:33Z
2021-01-12T06:15:35Z,42.805,6.029,13.2983,4.59986,2470.343,2021-1-12T08:16:36Z
2021-01-12T06:18:38Z,42.805,6.029,13.2982,4.59986,2470.39,2021-1-12T08:19:39Z
2021-01-12T06:21:41Z,42.805,6.029,13.2978,4.59988,2470.38,2021-1-12T08:22:42Z
2021-01-12T06:24:44Z,42.805,6.029,13.2985,4.59986,2470.38,2021-1-12T08:25:45Z
2021-01-12T06:27:47Z,42.805,6.029,13.2981,4.59985,2470.38,2021-1-12T08:28:49Z
2021-01-12T06:30:51Z,42.805,6.029,13.2982,4.59986,2470.38,2021-1-12T08:31:52Z
2021-01-12T06:33:54Z,42.805,6.029,13.2983,4.59986,2470.39,2021-1-12T08:34:55Z
2021-01-12T06:36:57Z,42.805,6.029,13.2986,4.59988,2470.404,2021-1-12T08:37:58Z
2021-01-12T06:40:00Z,42.805,6.029,13.2985,4.59987,2470.366,2021-1-12T08:41:01Z
2021-01-12T06:43:03Z,42.805,6.029,13.2979,4.59986,2470.404,2021-1-12T08:44:04Z
2021-01-12T06:46:06Z,42.805,6.029,13.2981,4.59986,2470.404,2021-1-12T08:47:07Z
2021-01-12T06:49:09Z,42.805,6.029,13.2983,4.59986,2470.357,2021-1-12T08:50:10Z
2021-01-12T06:52:12Z,42.805,6.029,13.2981,4.59986,2470.404,2021-1-12T08:53:14Z
2021-01-12T06:55:16Z,42.805,6.029,13.2983,4.59986,2470.404,2021-1-12T08:56:17Z
2021-01-12T06:58:19Z,42.805,6.029,13.2979,4.59990,2470.39,2021-1-12T08:59:20Z
2021-01-12T07:01:22Z,42.805,6.029,13.2984,4.59986,2470.39,2021-1-12T09:02:23Z
2021-01-12T07:04:25Z,42.805,6.029,13.2982,4.59987,2470.357,2021-1-12T09:05:26Z
2021-01-12T07:07:28Z,42.805,6.029,13.2984,4.59986,2470.366,2021-1-12T09:08:29Z
2021-01-12T07:10:31Z,42.805,6.029,13.2979,4.59986,2470.366,2021-1-12T09:11:32Z
2021-01-12T07:13:34Z,42.805,6.029,13.2981,4.59986,2470.39,2021-1-12T09:14:35Z
2021-01-12T07:16:37Z,42.805,6.029,13.2981,4.59986,2470.366,2021-1-12T09:17:39Z
2021-01-12T07:19:41Z,42.805,6.029,13.2978,4.59985,2470.427,2021-1-12T09:20:42Z
2021-01-12T07:22:44Z,42.805,6.029,13.2979,4.59985,2470.404,2021-1-12T09:23:45Z
2021-01-12T07:25:47Z,42.805,6.029,13.2983,4.59986,2470.39,2021-1-12T09:26:48Z
2021-01-12T07:28:50Z,42.805,6.029,13.2982,4.59985,2470.366,2021-1-12T09:29:51Z
2021-01-12T07:31:53Z,42.805,6.029,13.2984,4.59986,2470.366,2021-1-12T09:32:54Z
2021-01-12T07:34:56Z,42.805,6.029,13.2980,4.59986,2470.39,2021-1-12T09:35:57Z
2021-01-12T07:37:59Z,42.805,6.029,13.2982,4.59985,2470.39,2021-1-12T09:39:00Z
2021-01-12T07:41:02Z,42.805,6.029,13.2979,4.59986,2470.39,2021-1-12T09:42:04Z
2021-01-12T07:44:06Z,42.805,6.029,13.2983,4.59986,2470.366,2021-1-12T09:45:07Z
2021-01-12T07:47:09Z,42.805,6.029,13.2982,4.59986,2470.39,2021-1-12T09:48:10Z
2021-01-12T07:50:12Z,42.805,6.029,13.2982,4.59986,2470.413,2021-1-12T09:51:13Z
2021-01-12T07:53:15Z,42.805,6.029,13.2979,4.59986,2470.39,2021-1-12T09:54:16Z
2021-01-12T07:56:18Z,42.805,6.029,13.2983,4.59985,2470.39,2021-1-12T09:57:19Z
2021-01-12T07:59:21Z,42.805,6.029,13.2986,4.59985,2470.38,2021-1-12T10:00:22Z
2021-01-12T08:02:24Z,42.805,6.029,13.2982,4.59985,2470.366,2021-1-12T10:03:25Z
2021-01-12T08:05:27Z,42.805,6.029,13.2983,4.59986,2470.413,2021-1-12T10:06:29Z
2021-01-12T08:08:30Z,42.805,6.029,13.2982,4.59986,2470.39,2021-1-12T10:09:32Z
2021-01-12T08:11:34Z,42.805,6.029,13.2980,4.59986,2470.38,2021-1-12T10:12:35Z
2021-01-12T08:14:37Z,42.805,6.029,13.2981,4.59986,2470.366,2021-1-12T10:15:38Z
2021-01-12T08:17:40Z,42.805,6.029,13.2983,4.59989,2470.366,2021-1-12T10:18:41Z
2021-01-12T08:20:43Z,42.805,6.029,13.2979,4.59985,2470.366,2021-1-12T10:21:44Z
2021-01-12T08:23:46Z,42.805,6.029,13.2983,4.59986,2470.357,2021-1-12T10:24:47Z
2021-01-12T08:26:49Z,42.805,6.029,13.2979,4.59986,2470.366,2021-1-12T10:27:50Z
2021-01-12T08:29:52Z,42.805,6.029,13.2980,4.59986,2470.357,2021-1-12T10:30:54Z
2021-01-12T08:32:56Z,42.805,6.029,13.2982,4.59987,2470.357,2021-1-12T10:33:57Z
2021-01-12T08:35:59Z,42.805,6.029,13.2983,4.59985,2470.357,2021-1-12T10:37:00Z
2021-01-12T08:39:02Z,42.805,6.029,13.2982,4.59987,2470.366,2021-1-12T10:40:03Z
2021-01-12T08:42:05Z,42.805,6.029,13.2983,4.59987,2470.343,2021-1-12T10:43:06Z
2021-01-12T08:45:08Z,42.805,6.029,13.2982,4.59986,2470.366,2021-1-12T10:46:09Z
2021-01-12T08:48:11Z,42.805,6.029,13.2985,4.59986,2470.343,2021-1-12T10:49:12Z
2021-01-12T08:51:14Z,42.805,6.029,13.2980,4.59986,2470.357,2021-1-12T10:52:15Z
2021-01-12T08:54:17Z,42.805,6.029,13.2980,4.59985,2470.366,2021-1-12T10:55:19Z
2021-01-12T08:57:21Z,42.805,6.029,13.2982,4.59986,2470.343,2021-1-12T10:58:22Z
2021-01-12T09:00:24Z,42.805,6.029,13.2979,4.59986,2470.357,2021-1-12T11:01:25Z
2021-01-12T09:03:27Z,42.805,6.029,13.2983,4.59987,2470.357,2021-1-12T11:04:28Z
2021-01-12T09:06:30Z,42.805,6.029,13.2983,4.59986,2470.357,2021-1-12T11:07:31Z
2021-01-12T09:09:33Z,42.805,6.029,13.2982,4.59987,2470.366,2021-1-12T11:10:34Z
2021-01-12T09:12:36Z,42.805,6.029,13.2983,4.59989,2470.357,2021-1-12T11:13:37Z
2021-01-12T09:15:39Z,42.805,6.029,13.2981,4.59987,2470.343,2021-1-12T11:16:40Z
2021-01-12T09:18:42Z,42.805,6.029,13.2983,4.59986,2470.366,2021-1-12T11:19:44Z
2021-01-12T09:21:46Z,42.805,6.029,13.2982,4.59987,2470.366,2021-1-12T11:22:47Z
2021-01-12T09:24:49Z,42.805,6.029,13.2983,4.59988,2470.32,2021-1-12T11:25:50Z
2021-01-12T09:27:52Z,42.805,6.029,13.2979,4.59990,2470.343,2021-1-12T11:28:53Z
2021-01-12T09:30:55Z,42.805,6.029,13.2980,4.59986,2470.366,2021-1-12T11:31:56Z
2021-01-12T09:33:58Z,42.805,6.029,13.2980,4.59988,2470.334,2021-1-12T11:34:59Z
2021-01-12T09:37:01Z,42.805,6.029,13.2981,4.59988,2470.297,2021-1-12T11:38:02Z
2021-01-12T09:40:04Z,42.805,6.029,13.2987,4.59986,2470.357,2021-1-12T11:41:06Z
2021-01-12T09:43:07Z,42.805,6.029,13.2981,4.59988,2470.32,2021-1-12T11:44:09Z
2021-01-12T09:46:11Z,42.805,6.029,13.2979,4.59987,2470.32,2021-1-12T11:47:12Z
2021-01-12T09:49:14Z,42.805,6.029,13.2983,4.59986,2470.31,2021-1-12T11:50:15Z
2021-01-12T09:52:17Z,42.805,6.029,13.2985,4.59988,2470.366,2021-1-12T11:53:18Z
2021-01-12T09:55:20Z,42.805,6.029,13.2979,4.59988,2470.334,2021-1-12T11:56:21Z
2021-01-12T09:58:23Z,42.805,6.029,13.2980,4.59986,2470.32,2021-1-12T11:59:24Z
2021-01-12T10:01:26Z,42.805,6.029,13.2983,4.59989,2470.334,2021-1-12T12:02:27Z
2021-01-12T10:04:29Z,42.805,6.029,13.2982,4.59986,2470.32,2021-1-12T12:05:31Z
2021-01-12T10:07:32Z,42.805,6.029,13.2982,4.59995,2470.273,2021-1-12T12:08:34Z
2021-01-12T10:10:36Z,42.805,6.029,13.2982,4.59986,2470.343,2021-1-12T12:11:37Z
2021-01-12T10:13:39Z,42.805,6.029,13.2980,4.59997,2470.297,2021-1-12T12:14:40Z
2021-01-12T10:16:42Z,42.805,6.029,13.2978,4.59986,2470.32,2021-1-12T12:17:43Z
2021-01-12T10:19:45Z,42.805,6.029,13.2979,4.59985,2470.334,2021-1-12T12:20:46Z
2021-01-12T10:22:48Z,42.805,6.029,13.2983,4.59987,2470.297,2021-1-12T12:23:49Z
2021-01-12T10:25:51Z,42.805,6.029,13.2983,4.59986,2470.273,2021-1-12T12:26:52Z
2021-01-12T10:28:54Z,42.805,6.029,13.2982,4.59985,2470.31,2021-1-12T12:29:56Z
2021-01-12T10:31:57Z,42.805,6.029,13.2981,4.59986,2470.297,2021-1-12T12:32:59Z
2021-01-12T10:35:01Z,42.805,6.029,13.2978,4.59986,2470.297,2021-1-12T12:36:02Z
2021-01-12T10:38:04Z,42.805,6.029,13.2979,4.59986,2470.297,2021-1-12T12:39:05Z
2021-01-12T10:41:07Z,42.805,6.029,13.2979,4.59986,2470.31,2021-1-12T12:42:08Z
2021-01-12T10:44:10Z,42.805,6.029,13.2979,4.59986,2470.273,2021-1-12T12:45:11Z
2021-01-12T10:47:13Z,42.805,6.029,13.2983,4.59988,2470.287,2021-1-12T12:48:14Z
2021-01-12T10:50:16Z,42.805,6.029,13.2985,4.59986,2470.264,2021-1-12T12:51:17Z
2021-01-12T10:53:19Z,42.805,6.029,13.2982,4.59987,2470.264,2021-1-12T12:54:21Z
2021-01-12T10:56:22Z,42.805,6.029,13.2984,4.59986,2470.273,2021-1-12T12:57:24Z
2021-01-12T10:59:26Z,42.805,6.029,13.2981,4.59987,2470.273,2021-1-12T13:00:27Z
2021-01-12T11:02:29Z,42.805,6.029,13.2982,4.59989,2470.227,2021-1-12T13:03:30Z
2021-01-12T11:05:32Z,42.805,6.029,13.2983,4.59990,2470.287,2021-1-12T13:06:33Z
2021-01-12T11:08:35Z,42.805,6.029,13.2979,4.59989,2470.273,2021-1-12T13:09:36Z
2021-01-12T11:11:38Z,42.805,6.029,13.2983,4.59987,2470.264,2021-1-12T13:12:39Z
2021-01-12T11:14:41Z,42.805,6.029,13.2983,4.59987,2470.25,2021-1-12T13:15:42Z
2021-01-12T11:17:44Z,42.805,6.029,13.2982,4.59986,2470.25,2021-1-12T13:18:46Z
2021-01-12T11:20:47Z,42.805,6.029,13.2982,4.59987,2470.24,2021-1-12T13:21:49Z
2021-01-12T11:23:51Z,42.805,6.029,13.2983,4.59988,2470.264,2021-1-12T13:24:52Z
2021-01-12T11:26:54Z,42.805,6.029,13.2985,4.59986,2470.264,2021-1-12T13:27:55Z
2021-01-12T11:29:57Z,42.805,6.029,13.2981,4.59986,2470.24,2021-1-12T13:30:58Z
2021-01-12T11:33:00Z,42.805,6.029,13.2979,4.59986,2470.203,2021-1-12T13:34:01Z
2021-01-12T11:36:03Z,42.805,6.029,13.2983,4.59988,2470.264,2021-1-12T13:37:04Z
2021-01-12T11:39:06Z,42.805,6.029,13.2978,4.59991,2470.203,2021-1-12T13:40:07Z
2021-01-12T11:42:09Z,42.805,6.029,13.2985,4.59989,2470.227,2021-1-12T13:43:11Z
2021-01-12T11:45:13Z,42.805,6.029,13.2983,4.59988,2470.25,2021-1-12T13:46:14Z
2021-01-12T11:48:16Z,42.805,6.029,13.2979,4.59986,2470.25,2021-1-12T13:49:17Z
2021-01-12T11:51:19Z,42.805,6.029,13.2982,4.59987,2470.203,2021-1-12T13:52:20Z
2021-01-12T11:54:22Z,42.805,6.029,13.2983,4.59995,2470.25,2021-1-12T13:55:23Z
2021-01-12T11:57:25Z,42.805,6.029,13.2985,4.59987,2470.203,2021-1-12T13:58:26Z
2021-01-12T12:00:28Z,42.805,6.029,13.2982,4.59987,2470.18,2021-1-12T14:01:29Z
2021-01-12T12:03:31Z,42.805,6.029,13.2982,4.59985,2470.227,2021-1-12T14:04:32Z
2021-01-12T12:06:34Z,42.805,6.029,13.2979,4.59986,2470.203,2021-1-12T14:07:36Z
2021-01-12T12:09:38Z,42.805,6.029,13.2985,4.59988,2470.194,2021-1-12T14:10:39Z
2021-01-12T12:12:41Z,42.805,6.029,13.2985,4.59987,2470.24,2021-1-12T14:13:42Z
2021-01-12T12:15:44Z,42.805,6.029,13.2979,4.59986,2470.203,2021-1-12T14:16:45Z
2021-01-12T12:18:47Z,42.805,6.029,13.2983,4.59991,2470.194,2021-1-12T14:19:48Z
2021-01-12T12:21:50Z,42.805,6.029,13.2982,4.59999,2470.194,2021-1-12T14:22:51Z
2021-01-12T12:24:53Z,42.805,6.029,13.2982,4.59987,2470.18,2021-1-12T14:25:54Z
2021-01-12T12:27:56Z,42.805,6.029,13.2982,4.59987,2470.217,2021-1-12T14:28:58Z
2021-01-12T12:30:59Z,42.805,6.029,13.2984,4.59987,2470.156,2021-1-12T14:32:01Z
2021-01-12T12:34:03Z,42.805,6.029,13.2983,4.59988,2470.194,2021-1-12T14:35:04Z
2021-01-12T12:37:06Z,42.805,6.029,13.2983,4.59987,2470.227,2021-1-12T14:38:07Z
2021-01-12T12:40:09Z,42.805,6.029,13.2979,4.59989,2470.203,2021-1-12T14:41:10Z
2021-01-12T12:43:12Z,42.805,6.029,13.2985,4.59988,2470.156,2021-1-12T14:44:13Z
2021-01-12T12:46:15Z,42.805,6.029,13.2981,4.59986,2470.18,2021-1-12T14:47:16Z
2021-01-12T12:49:18Z,42.805,6.029,13.2984,4.59991,2470.18,2021-1-12T14:50:19Z
2021-01-12T12:52:21Z,42.805,6.029,13.2980,4.59992,2470.194,2021-1-12T14:53:23Z
2021-01-12T12:55:25Z,42.805,6.029,13.2983,4.59986,2470.156,2021-1-12T14:56:26Z
2021-01-12T12:58:28Z,42.805,6.029,13.2983,4.59985,2470.171,2021-1-12T14:59:29Z
2021-01-12T13:01:31Z,42.805,6.029,13.2981,4.59985,2470.147,2021-1-12T15:02:32Z
2021-01-12T13:04:34Z,42.805,6.029,13.2981,4.59985,2470.133,2021-1-12T15:05:35Z
2021-01-12T13:07:37Z,42.805,6.029,13.2983,4.59986,2470.156,2021-1-12T15:08:38Z
2021-01-12T13:10:40Z,42.805,6.029,13.2982,4.59986,2470.147,2021-1-12T15:11:41Z
2021-01-12T13:13:43Z,42.805,6.029,13.2985,4.59986,2470.147,2021-1-12T15:14:44Z
2021-01-12T13:16:46Z,42.805,6.029,13.2985,4.59986,2470.147,2021-1-12T15:17:48Z
2021-01-12T13:19:49Z,42.805,6.029,13.2980,4.59987,2470.171,2021-1-12T15:20:51Z
2021-01-12T13:22:53Z,42.805,6.029,13.2981,4.59986,2470.133,2021-1-12T15:23:54Z
2021-01-12T13:25:56Z,42.805,6.029,13.2983,4.59987,2470.133,2021-1-12T15:26:57Z
2021-01-12T13:28:59Z,42.805,6.029,13.2983,4.59988,2470.156,2021-1-12T15:30:00Z
2021-01-12T13:32:02Z,42.805,6.029,13.2986,4.59996,2470.133,2021-1-12T15:33:03Z
2021-01-12T13:35:05Z,42.805,6.029,13.2985,4.59992,2470.147,2021-1-12T15:36:06Z
2021-01-12T13:38:08Z,42.805,6.029,13.2980,4.59987,2470.156,2021-1-12T15:39:09Z
2021-01-12T13:41:11Z,42.805,6.029,13.2982,4.59988,2470.133,2021-1-12T15:42:13Z
2021-01-12T13:44:15Z,42.805,6.029,13.2983,4.59988,2470.133,2021-1-12T15:45:16Z
2021-01-12T13:47:18Z,42.805,6.029,13.2984,4.59988,2470.133,2021-1-12T15:48:19Z
2021-01-12T13:50:21Z,42.805,6.029,13.2982,4.59994,2470.11,2021-1-12T15:51:22Z
2021-01-12T13:53:24Z,42.805,6.029,13.2982,4.59994,2470.166,2021-1-12T15:54:25Z
2021-01-12T13:56:27Z,42.805,6.029,13.2980,4.59988,2470.156,2021-1-12T15:57:28Z
2021-01-12T13:59:30Z,42.805,6.029,13.2977,4.59989,2470.156,2021-1-12T16:00:31Z
2021-01-12T14:02:33Z,42.805,6.029,13.2982,4.59991,2470.133,2021-1-12T16:03:34Z
2021-01-12T14:05:36Z,42.805,6.029,13.2983,4.59992,2470.133,2021-1-12T16:06:38Z
2021-01-12T14:08:39Z,42.805,6.029,13.2982,4.59990,2470.147,2021-1-12T16:09:41Z
2021-01-12T14:11:43Z,42.805,6.029,13.2979,4.60004,2470.156,2021-1-12T16:12:44Z
2021-01-12T14:14:46Z,42.805,6.029,13.2985,4.59988,2470.171,2021-1-12T16:15:47Z
2021-01-12T14:17:49Z,42.805,6.029,13.2981,4.59988,2470.133,2021-1-12T16:18:50Z
2021-01-12T14:20:52Z,42.805,6.029,13.2983,4.59988,2470.147,2021-1-12T16:21:53Z
2021-01-12T14:23:55Z,42.805,6.029,13.2985,4.59996,2470.156,2021-1-12T16:24:56Z
2021-01-12T14:26:58Z,42.805,6.029,13.2979,4.59988,2470.133,2021-1-12T16:27:59Z
2021-01-12T14:30:01Z,42.805,6.029,13.2983,4.59991,2470.156,2021-1-12T16:31:03Z
2021-01-12T14:33:05Z,42.805,6.029,13.2982,4.59988,2470.124,2021-1-12T16:34:06Z
2021-01-12T14:36:08Z,42.805,6.029,13.2983,4.59987,2470.156,2021-1-12T16:37:09Z
2021-01-12T14:39:11Z,42.805,6.029,13.2984,4.59987,2470.171,2021-1-12T16:40:12Z
2021-01-12T14:42:14Z,42.805,6.029,13.2983,4.59987,2470.18,2021-1-12T16:43:15Z
2021-01-12T14:45:17Z,42.805,6.029,13.2978,4.59988,2470.11,2021-1-12T16:46:18Z
2021-01-12T14:48:20Z,42.805,6.029,13.2980,4.59991,2470.171,2021-1-12T16:49:21Z
2021-01-12T14:51:23Z,42.805,6.029,13.2983,4.59991,2470.171,2021-1-12T16:52:24Z
2021-01-12T14:54:26Z,42.805,6.029,13.2985,4.59990,2470.156,2021-1-12T16:55:28Z
2021-01-12T14:57:30Z,42.805,6.029,13.2982,4.59987,2470.133,2021-1-12T16:58:31Z
2021-01-12T15:00:33Z,42.805,6.029,13.2981,4.59990,2470.156,2021-1-12T17:01:34Z
2021-01-12T15:03:36Z,42.805,6.029,13.2983,4.59994,2470.18,2021-1-12T17:04:37Z
2021-01-12T15:06:39Z,42.805,6.029,13.2983,4.59987,2470.133,2021-1-12T17:07:40Z
2021-01-12T15:09:42Z,42.805,6.029,13.2984,4.59994,2470.156,2021-1-12T17:10:43Z
2021-01-12T15:12:45Z,42.805,6.029,13.2983,4.59989,2470.11,2021-1-12T17:13:46Z